, AK

(GMT )
Kotzebue

Weather History for PAOT - October, 2012

Change the Weather History Date:

Thursday, October 25, 2012

  Actual Average Record
Temperature  
Mean Temperature 26 °F 19 °F  
Max Temperature 27 °F 23 °F 42 °F (1969)
Min Temperature 25 °F 14 °F -17 °F (1935)
Degree Days  
Heating Degree Days 39 47  
Month to date heating degree days 869 973  
Since 1 July heating degree days 2340 2392  
Cooling Degree Days 0 0  
Month to date cooling degree days 0 0  
Year to date cooling degree days 0 5  
Moisture  
Dew Point 19 °F    
Average Humidity 0    
Maximum Humidity 0    
Minimum Humidity 0    
Precipitation  
Precipitation 0.00 in 0.02 in 0.51 in (2011)
Month to date precipitation 1.10 0.87  
Year to date precipitation 13.13 9.33  
Snow  
Snow 0.00 in 0.20 in 7.90 in (2011)
Month to date snowfall 0.4 4.6  
Since 1 July snowfall 0.4 5.4  
Since 1 September snowfall 0.4 5.4  
Snow Depth 0.00 in    
Sea Level Pressure  
Sea Level Pressure 30.56 in    
Wind  
Wind Speed 17 mph (ESE)    
Max Wind Speed 24 mph    
Max Gust Speed 28 mph    
Visibility 10 miles    
Events      
T = Trace of Precipitation, MM = Missing Value Source: NWS Daily Summary

Daily Weather History Graph

Daily Weather History Graph

Search for Another Location

Airport or City:

Trip Planner

Search our weather history database for the weather conditions in past years. The results will help you decide how hot, cold, wet, or windy it might be!

Date:

Astronomy

Oct. 25, 2012 Rise Set
Actual Time 10:28 AM AKDT 6:38 PM AKDT
Civil Twilight 9:30 AM AKDT 7:36 PM AKDT
Nautical Twilight 8:28 AM AKDT 8:38 PM AKDT
Astronomical Twilight 7:26 AM AKDT 9:40 PM AKDT
Moon 5:44 PM AKDT (10/25) 5:10 AM AKDT (10/25)
Length of Visible Light 10h 06m
Length of Day
8h 10m
Waxing Gibbous, 85% of the Moon is Illuminated
Oct 25
Waxing Gibbous
Oct 29
Full
Nov 6
Last Quarter
Nov 13
New
Nov 20
First Quarter

Hourly Weather History & Observations

Time (AKDT) Temp. Windchill Dew Point Humidity Pressure Visibility Wind Dir Wind Speed Gust Speed Precip Events Conditions
12:53 AM 25.0 °F 10.9 °F 17.1 °F 72% 30.64 in 10.0 mi ESE 19.6 mph - N/A   Clear
1:53 AM 26.1 °F 16.2 °F 18.0 °F 71% 30.66 in 10.0 mi ESE 10.4 mph - N/A   Clear
2:53 AM 26.1 °F 12.7 °F 18.0 °F 71% 30.65 in 10.0 mi ESE 18.4 mph - N/A   Clear
3:53 AM 25.0 °F 13.6 °F 18.0 °F 75% 30.65 in 10.0 mi ESE 12.7 mph - N/A   Overcast
4:53 AM 26.1 °F 12.7 °F 18.0 °F 71% 30.62 in 10.0 mi ESE 18.4 mph - N/A   Overcast
5:53 AM 26.1 °F 13.1 °F 18.0 °F 71% 30.61 in 10.0 mi ESE 17.3 mph - N/A   Overcast
6:53 AM 26.1 °F 14.0 °F 18.0 °F 71% 30.61 in 10.0 mi SE 15.0 mph - N/A   Overcast
7:53 AM 26.1 °F 13.6 °F 18.0 °F 71% 30.60 in 10.0 mi SE 16.1 mph - N/A   Overcast
8:53 AM 26.1 °F 12.3 °F 18.0 °F 71% 30.58 in 10.0 mi SE 19.6 mph - N/A   Scattered Clouds
9:53 AM 26.1 °F 12.3 °F 19.0 °F 75% 30.57 in 10.0 mi ESE 19.6 mph - N/A   Mostly Cloudy
10:53 AM 26.1 °F 12.3 °F 19.0 °F 75% 30.57 in 10.0 mi ESE 19.6 mph - N/A   Overcast
11:53 AM 26.1 °F 12.3 °F 18.0 °F 71% 30.56 in 10.0 mi ESE 19.6 mph - N/A   Mostly Cloudy
12:53 PM 26.1 °F 12.7 °F 19.0 °F 75% 30.55 in 10.0 mi ESE 18.4 mph - N/A   Overcast
1:53 PM 27.0 °F 12.8 °F 19.0 °F 72% 30.54 in 10.0 mi SE 21.9 mph - N/A   Overcast
2:53 PM 27.0 °F 13.9 °F 19.9 °F 75% 30.53 in 10.0 mi SE 18.4 mph - N/A   Overcast
3:53 PM 27.0 °F 12.5 °F 19.0 °F 72% 30.52 in 10.0 mi SE 23.0 mph - N/A   Overcast
4:53 PM 27.0 °F 15.2 °F 19.0 °F 72% 30.52 in 10.0 mi ESE 15.0 mph - N/A   Overcast
5:53 PM 27.0 °F 13.9 °F 19.0 °F 72% 30.51 in 10.0 mi SE 18.4 mph - N/A   Overcast
6:53 PM 27.0 °F 13.5 °F 19.9 °F 75% 30.51 in 10.0 mi ESE 19.6 mph - N/A   Overcast
7:53 PM 27.0 °F 14.3 °F 19.9 °F 75% 30.49 in 10.0 mi ESE 17.3 mph - N/A   Overcast
8:53 PM 27.0 °F 14.7 °F 19.9 °F 75% 30.49 in 10.0 mi SE 16.1 mph - N/A   Overcast
9:53 PM 27.0 °F 14.7 °F 19.9 °F 75% 30.48 in 10.0 mi SE 16.1 mph - N/A   Overcast
10:53 PM 27.0 °F 15.2 °F 21.0 °F 78% 30.47 in 10.0 mi ESE 15.0 mph - N/A   Overcast
11:53 PM 27.0 °F 15.2 °F 21.0 °F 78% 30.46 in 10.0 mi SE 15.0 mph - N/A   Mostly Cloudy